Stations météo

réclame
Mon MeteoGroup
Drumalbin, Grande-Bretagne (3155): Température de l'air & dewpoint: 08.08.2018 22:00:00 - 14.08.2018 22:00:00 (BST)Drumalbin, Grande-Bretagne (3155): Température de l'air -20cm & Température de l'air -100cm: 08.08.2018 22:00:00 - 14.08.2018 22:00:00 (BST)Drumalbin, Grande-Bretagne (3155): Vitesse du vent: 08.08.2018 22:00:00 - 14.08.2018 22:00:00 (BST)Drumalbin, Grande-Bretagne (3155): Direction du vent: 08.08.2018 22:00:00 - 14.08.2018 22:00:00 (BST)Drumalbin, Grande-Bretagne (3155): reduced air pressure: 08.08.2018 22:00:00 - 14.08.2018 22:00:00 (BST)Drumalbin, Grande-Bretagne (3155): visibility: 08.08.2018 22:00:00 - 14.08.2018 22:00:00 (BST)Drumalbin, Grande-Bretagne (3155): Quantités de précipitations: 08.08.2018 22:00:00 - 14.08.2018 22:00:00 (BST)
Date & Time tt [°C] td [°C] tt -20cm [°C] tt -100cm [°C] ff [km/h] ff [knt] dd ppp [hPa] vv [km] rr [mm]
14.08.2018 22:00:00 14,6 14,5 - - 15 8 WSW 1011,7 16 0,0
14.08.2018 21:00:00 14,9 14,7 - - 16 9 WSW 1011,6 40 0,2
14.08.2018 20:00:00 15,6 14,6 - - 21 11 W 1011,2 50 0,0
14.08.2018 19:00:00 16,5 15,0 - - 31 17 W 1011,0 50 0,0
14.08.2018 18:00:00 16,7 15,6 - - 28 15 WSW 1011,0 50 0,0
14.08.2018 17:00:00 17,0 15,3 - - 29 16 WSW 1011,1 30 0,0
14.08.2018 16:00:00 16,6 15,3 - - 29 16 WSW 1011,1 50 0,0
14.08.2018 15:00:00 16,0 14,9 - - 22 12 WSW 1011,3 50 0,0
14.08.2018 14:00:00 15,8 14,6 - - 24 13 SW 1011,2 40 0,0
14.08.2018 13:00:00 15,3 14,8 - - 18 10 SW 1011,1 30 1,8
14.08.2018 12:00:00 14,9 13,3 - - 16 9 WSW 1011,5 9 0,2
14.08.2018 11:00:00 14,9 12,7 - - 22 12 WSW 1011,6 50 0,0
14.08.2018 10:00:00 14,8 12,3 15,7 13,9 24 13 WSW 1011,2 50 0,0
14.08.2018 09:00:00 13,7 13,1 - - 16 9 WSW 1011,1 50 0,0
14.08.2018 08:00:00 13,1 12,5 - - 18 10 WSW 1011,2 40 0,0
14.08.2018 07:00:00 13,2 12,4 - - 15 8 SW 1011,0 30 0,0
14.08.2018 06:00:00 12,9 12,4 - - 13 7 WSW 1011,1 45 0,0
14.08.2018 05:00:00 12,6 12,1 - - 9 5 SW 1010,8 35 0,0
14.08.2018 04:00:00 12,5 12,0 - - 9 5 SW 1011,2 50 0,0
14.08.2018 03:00:00 12,3 11,9 - - 13 7 SW 1011,0 50 0,0
14.08.2018 02:00:00 12,5 11,8 - - 15 8 WSW 1011,4 50 0,0
14.08.2018 01:00:00 12,5 11,8 - - 13 7 WSW 1011,5 50 0,0
14.08.2018 00:00:00 12,6 11,9 - - 5 3 WSW 1011,1 30 0,0
13.08.2018 23:00:00 13,4 12,6 - - 9 5 WSW 1010,6 50 0,0
13.08.2018 22:00:00 13,7 13,0 - - 9 5 WSW 1010,4 45 0,0
13.08.2018 21:00:00 13,9 13,5 - - 11 6 W 1010,1 45 0,2
13.08.2018 20:00:00 14,2 14,0 - - 16 9 W 1009,6 6 0,0
13.08.2018 19:00:00 15,1 14,2 - - 15 8 W 1009,1 17 0,0
13.08.2018 18:00:00 16,4 14,2 - - 11 6 NNW 1008,6 40 0,0
13.08.2018 17:00:00 16,7 14,0 - - 11 6 WNW 1008,5 45 0,0
13.08.2018 16:00:00 16,2 14,3 - - 11 6 NNW 1008,4 26 0,0
13.08.2018 15:00:00 15,6 14,0 - - 11 6 NW 1008,5 40 0,0
13.08.2018 14:00:00 15,4 14,2 - - 11 6 NNW 1008,2 50 0,0
13.08.2018 13:00:00 15,6 14,2 - - 9 5 NNE 1007,9 50 0,0
13.08.2018 12:00:00 15,1 13,9 - - 5 3 N 1007,8 50 0,0
13.08.2018 11:00:00 14,6 14,4 - - 9 5 NNE 1007,5 50 0,0
13.08.2018 10:00:00 13,8 13,6 15,7 13,9 8 4 NE 1007,3 50 0,0
13.08.2018 09:00:00 13,6 13,6 - - 13 7 NNE 1007,3 50 0,0
13.08.2018 08:00:00 13,2 13,2 - - 11 6 NE 1006,9 45 0,0
13.08.2018 07:00:00 12,9 12,9 - - 9 5 NE 1006,5 18 0,0
13.08.2018 06:00:00 12,9 12,9 - - 9 5 ENE 1006,2 6 0,2
13.08.2018 05:00:00 12,9 12,9 - - 9 5 NE 1006,1 6 0,0
13.08.2018 04:00:00 13,2 13,2 - - 13 7 NE 1006,0 1,5 0,4
13.08.2018 03:00:00 13,3 13,3 - - 4 2 NE 1006,3 0,7 0,0
13.08.2018 02:00:00 13,2 13,2 - - 8 4 ENE 1006,2 1,4 0,0
13.08.2018 01:00:00 13,2 13,2 - - 16 9 NE 1006,5 0,2 0,0
13.08.2018 00:00:00 13,7 13,6 - - 13 7 NE 1006,4 0,4 0,0
12.08.2018 23:00:00 13,9 13,9 - - 13 7 ENE 1006,5 6 0,0
12.08.2018 22:00:00 14,1 13,9 - - 18 10 ENE 1006,4 8 0,0
12.08.2018 21:00:00 14,3 14,0 - - 16 9 ENE 1006,2 14 0,0
12.08.2018 20:00:00 15,0 14,4 - - 16 9 ENE 1005,9 35 0,0
12.08.2018 19:00:00 15,1 14,6 - - 16 9 NE 1005,9 26 0,0
12.08.2018 18:00:00 15,7 14,6 - - 24 13 NNE 1005,5 45 0,0
12.08.2018 17:00:00 17,5 15,6 - - 21 11 ENE 1005,6 50 0,0
12.08.2018 16:00:00 18,1 15,8 - - 18 10 ENE 1005,6 50 0,0
12.08.2018 15:00:00 19,1 14,6 - - 13 7 E 1005,6 50 0,0
12.08.2018 14:00:00 18,1 15,6 - - 16 9 E 1005,9 50 0,0
12.08.2018 13:00:00 16,6 15,7 - - 21 11 E 1006,3 50 0,2
12.08.2018 12:00:00 14,7 14,5 - - 15 8 E 1006,6 11 0,4
12.08.2018 11:00:00 13,7 13,6 - - 21 11 E 1006,7 9 10,2
12.08.2018 10:00:00 13,4 13,1 15,5 13,9 15 8 E 1006,8 3,5 0,6
12.08.2018 09:00:00 13,2 13,0 - - 15 8 E 1006,7 50 0,4
12.08.2018 08:00:00 12,7 12,6 - - 11 6 E 1006,8 3,4 0,0
12.08.2018 07:00:00 12,5 12,3 - - 11 6 E 1007,0 20 0,2
12.08.2018 06:00:00 12,4 12,2 - - 8 4 ENE 1007,2 40 0,0
12.08.2018 05:00:00 12,5 12,3 - - 11 6 E 1007,5 50 0,0
12.08.2018 04:00:00 12,5 12,4 - - 13 7 E 1008,1 20 0,4
12.08.2018 03:00:00 12,3 12,2 - - 15 8 E 1009,0 3,9 0,4
12.08.2018 02:00:00 12,2 12,0 - - 11 6 E 1009,8 4,7 5,6
12.08.2018 01:00:00 12,3 11,7 - - 11 6 E 1010,9 3,3 0,8
12.08.2018 00:00:00 13,4 10,7 - - 11 6 SE 1011,6 18 0,0
11.08.2018 23:00:00 14,7 9,6 - - 13 7 ESE 1011,9 50 0,0
11.08.2018 22:00:00 14,4 8,9 - - 11 6 E 1012,6 50 0,0
11.08.2018 21:00:00 15,0 8,3 - - 5 3 SE 1013,2 50 0,0
11.08.2018 20:00:00 15,6 7,2 - - 8 4 S 1013,7 50 0,0
11.08.2018 19:00:00 15,7 7,7 - - 13 7 SSE 1014,4 50 0,0
11.08.2018 18:00:00 16,3 7,7 - - 22 12 S 1014,9 50 0,0
11.08.2018 17:00:00 17,7 9,2 - - 22 12 SSW 1015,2 50 0,0
11.08.2018 16:00:00 17,0 8,9 - - 18 10 SSW 1016,0 50 0,0
11.08.2018 15:00:00 17,0 10,0 - - 21 11 SSW 1016,6 50 0,0
11.08.2018 14:00:00 16,2 7,8 - - 16 9 SW 1017,3 50 0,0
11.08.2018 13:00:00 15,7 8,4 - - 18 10 SSW 1017,7 50 0,0
11.08.2018 12:00:00 14,6 6,6 - - 13 7 WSW 1018,3 50 0,0
11.08.2018 11:00:00 13,8 6,7 - - 15 8 WSW 1018,9 50 0,0
11.08.2018 10:00:00 13,2 8,8 15,2 14,0 9 5 WSW 1019,0 50 0,0
11.08.2018 09:00:00 11,9 9,4 - - 9 5 WSW 1019,5 50 0,0
11.08.2018 08:00:00 10,1 9,0 - - 9 5 SW 1019,8 50 0,0
11.08.2018 07:00:00 8,1 7,6 - - 15 8 SSW 1020,1 40 0,0
11.08.2018 06:00:00 7,7 7,4 - - 15 8 SW 1019,5 26 0,0
11.08.2018 05:00:00 7,2 6,7 - - 11 6 SSW 1019,5 45 0,0
11.08.2018 04:00:00 7,0 6,6 - - 8 4 SW 1019,5 50 0,0
11.08.2018 03:00:00 7,4 6,6 - - 8 4 SW 1019,5 50 0,0
11.08.2018 02:00:00 8,7 7,6 - - 15 8 WSW 1019,3 50 0,0
11.08.2018 01:00:00 8,9 7,5 - - 13 7 WSW 1019,4 50 0,0
11.08.2018 00:00:00 9,8 7,7 - - 18 10 W 1019,0 50 0,0
10.08.2018 23:00:00 9,6 7,6 - - 15 8 WSW 1018,6 50 0,0
10.08.2018 22:00:00 10,4 7,8 - - 13 7 WSW 1018,0 50 0,0
10.08.2018 21:00:00 11,4 8,3 - - 13 7 W 1017,0 50 0,0
10.08.2018 20:00:00 13,8 8,1 - - 16 9 WNW 1016,1 50 0,0
10.08.2018 19:00:00 14,4 7,8 - - 21 11 W 1015,4 50 0,0
10.08.2018 18:00:00 14,6 10,4 - - 21 11 W 1014,9 50 0,4
10.08.2018 17:00:00 14,1 7,3 - - 24 13 W 1014,6 50 0,0
10.08.2018 16:00:00 13,2 10,0 - - 15 8 WNW 1014,3 50 0,0
10.08.2018 15:00:00 14,3 8,2 - - 22 12 WNW 1013,9 30 0,0
10.08.2018 14:00:00 13,8 9,7 - - 18 10 W 1013,7 50 0,0
10.08.2018 13:00:00 13,9 8,7 - - 16 9 W 1013,3 50 0,0
10.08.2018 12:00:00 12,3 9,4 - - 16 9 WNW 1013,2 50 0,6
10.08.2018 11:00:00 13,8 8,0 - - 16 9 W 1012,7 50 0,0
10.08.2018 10:00:00 11,7 8,2 15,5 14,0 16 9 W 1012,8 50 0,0
10.08.2018 09:00:00 10,8 9,7 - - 15 8 W 1012,7 50 0,0
10.08.2018 08:00:00 9,8 9,1 - - 13 7 WSW 1012,3 50 0,8
10.08.2018 07:00:00 9,8 9,3 - - 18 10 SW 1011,9 2,7 0,6
10.08.2018 06:00:00 9,7 9,0 - - 15 8 SSW 1011,7 12 0,0
10.08.2018 05:00:00 9,5 8,6 - - 13 7 SW 1011,6 45 0,0
10.08.2018 04:00:00 9,4 8,5 - - 15 8 SSW 1011,8 50 0,0
10.08.2018 03:00:00 9,5 8,5 - - 15 8 SSW 1011,9 50 0,0
10.08.2018 02:00:00 8,0 7,4 - - 5 3 W 1012,4 45 0,0
10.08.2018 01:00:00 8,9 7,6 - - 11 6 SSW 1012,5 45 0,0
10.08.2018 00:00:00 10,4 8,2 - - 8 4 S 1012,6 50 0,0
09.08.2018 23:00:00 9,5 7,6 - - 8 4 SSE 1012,8 50 0,2
09.08.2018 22:00:00 9,7 8,5 - - 9 5 WSW 1012,8 3,8 1,6
09.08.2018 21:00:00 11,5 7,9 - - 21 11 WSW 1012,5 50 0,0
09.08.2018 20:00:00 13,2 7,0 - - 15 8 SSW 1012,1 50 0,0
09.08.2018 19:00:00 14,4 6,2 - - 22 12 WSW 1011,6 50 0,0
09.08.2018 18:00:00 15,3 7,0 - - 16 9 SW 1011,4 50 0,0
09.08.2018 17:00:00 16,7 6,6 - - 22 12 W 1011,7 50 0,0
09.08.2018 16:00:00 17,0 6,3 - - 24 13 WSW 1011,6 50 0,0
09.08.2018 15:00:00 15,7 6,2 - - 18 10 WSW 1011,6 50 0,0
09.08.2018 14:00:00 16,5 7,6 - - 21 11 WSW 1011,5 50 0,0
09.08.2018 13:00:00 15,3 7,3 - - 24 13 WSW 1011,4 50 0,0
09.08.2018 12:00:00 15,4 7,5 - - 24 13 WSW 1011,5 50 0,0
09.08.2018 11:00:00 14,6 6,8 - - 28 15 SW 1011,7 50 0,0
09.08.2018 10:00:00 12,8 6,9 15,7 14,0 21 11 WSW 1011,9 50 0,0
09.08.2018 09:00:00 11,9 7,5 - - 18 10 SW 1012,1 50 0,0
09.08.2018 08:00:00 10,0 7,8 - - 16 9 SSW 1012,0 50 0,0
09.08.2018 07:00:00 7,4 5,8 - - 2 1 W 1012,0 50 0,0
09.08.2018 06:00:00 8,5 6,8 - - 18 10 SSW 1011,5 50 0,0
09.08.2018 05:00:00 8,2 7,0 - - 21 11 SSW 1011,4 50 0,0
09.08.2018 04:00:00 7,3 6,5 - - 5 3 SW 1011,6 50 0,0
09.08.2018 03:00:00 7,6 6,8 - - 5 3 SSW 1011,3 50 0,0
09.08.2018 02:00:00 7,9 6,9 - - 5 3 SW 1011,3 50 0,0
09.08.2018 01:00:00 8,1 7,2 - - 13 7 SSW 1011,3 50 0,0
09.08.2018 00:00:00 8,5 7,1 - - 11 6 SSW 1011,0 50 0,0
08.08.2018 23:00:00 9,3 7,5 - - 8 4 WSW 1011,0 50 0,0
08.08.2018 22:00:00 10,3 7,7 - - 13 7 SW 1010,6 50 0,0

tt = Température de l'air
td = dewpoint
tt -20cm = Température de l'air -20cm
tt -100cm = Température de l'air -100cm
ff = Vitesse du vent
dd = Direction du vent
ppp = reduced air pressure
vv = visibility
rr = Quantités de précipitations

stations d'obs. à proximité